THOR ABLESTAR DEB, 461

Orbit data source: Space-Track

THOR ABLESTAR DEB, 461 is space debris in LEO originally from a launch on Thu, 29 Jun 1961 UTC launched from the Air Force Eastern Test Range (AFETR). Debris objects in space refer to the collection of defunct objects orbiting the Earth. Examples of debris include non-operational satellites, rocket bodies, and fragments generated from explosions, collisions, or faulty payload assembly.

Loading next visibility...
Identifier
461, 1961-015EX
Orbit
LEO
Country
Flag of USUS
Related business
Manufacturer
Unknown
Mission
Spacecraft
Bus & Motor
Unknown
Mass
Unknown
Launch date (UTC)
1961-06-29 (65 years ago)
Launch vehicle
Unknown
Launch site
Air Force Eastern Test Range (AFETR)
Object type
Payload
Rocket body
Debris
Shape & HBR
Unknown shape, 0.1 m
Radar Cross Section
Medium (>0.1 m² and <1 m²)

Expand to show TLE details & history
Last TLE update: 6 days ago

TLE from 6 days ago
0 THOR ABLESTAR DEB
1 00461U 61015EX  26155.08368494  .00031305  00000-0  20118-2 0  9991
2 00461  67.4919 126.6181 0025897 303.7185  56.1491 15.08029060383834
Epoch: 2026-06-04T02:00Z
TLE epoch observation values (Epoch: 2026-06-04T02:00:30.378Z)
Latitude
-0.00004°
Longitude
-156.04153°
Altitude
534.517 km
Speed
7.601 km/s
True Right ascension
08h 26m 28s
True Declination
0° 00' 00"
Sunlit
Object was in daylight at epoch
Visualization orbit readout
Latitude
Unknown
Longitude
Unknown
Altitude
Unknown
Speed
Unknown
Apparent Right ascension
Unknown
Apparent Declination
Unknown
Sunlit
N/A
Visualization observer readout
Local Sidereal Time
12:56:21
Azimuth
Unknown
Elevation
Unknown
Doppler factor
Unknown
Orbital elements
Apogee altitude
558.362 km
Perigee altitude
522.528 km
Semi-major axis
6,918.582 km
Eccentricity
0.00259
Inclination
67.4919°
RAAN
126.6181°
Arg. of periapsis
303.7185°
True anomaly
56.396°
Mean anomaly
56.1491°
Eccentric anomaly
56.2725°
Mean motion
3.77153 °/min
Orbital period
95.45 mins
BSTAR
0.0020118
Loading maneuver chart data...
Computing Atmospheric mass density...
Loading historical data...
Loading historical data...
Loading historical data...
Loading historical data...
Loading historical data...
Loading historical data...
Loading historical data...

Documentation

Showing up to 5 results
|